Location: Chervonnoye
(48.6000°N, 34.4000°E)
Time: 21:20:29
(UTC+00:00)

RS-44 - Pass Details

Date: 05 December 2021
Orbit: 1175 x 1510 km, 82.5° (Epoch: 19 January)

Event Time Altitude Azimuth Distance (km) Brightness Sun altitude
Rises 14:49:53 0° 120° (ESE) 4,083 ? -9.9°
Reaches altitude 10° 14:54:43 10° 92° (E) 3,101 ? -10.6°
Enters shadow 14:55:07 11° 89° (E) 3,057 ? -10.7°
